Flag for Germany Weather past 2 weeks in Rheine, North Rhine-Westphalia, Germany

Now
60 °F

Overcast.


Feels Like: 60 °F
Forecast: 47 / 58 °F
Wind: 5 mph from Northwest

Location: Muenster / Osnabrueck

Current Time: Sep 21, 2014 at 12:49:59 PM

Latest Report: Sep 21, 2014 at 12:00 PM


Visibility: 13 mi

Pressure: 30.00 "Hg

Humidity: 88%

Dew point: 57 °F

Location of RheineLocation

Historic Weather in Rheine — Graph

°F

Rheine temperature yesterday

Maximum temperature yesterday: 72 °F (at 3:00 PM)
Minimum temperature yesterday: 58 °F (at 6:00 AM)
Average temperature yesterday: 63 °F

Past Weeks' High & Low Weather Summary

 TemperatureHumidityPressure
High79 °F (Sep 18, 3:00 PM)100% (Sep 20, 4:00 AM)30.26 "Hg (Sep 20, 4:00 AM)
Low47 °F (Sep 12, 3:00 AM)49% (Sep 18, 3:00 PM)29.85 "Hg (Sep 19, 7:00 AM)
Average62 °F84%30.03 "Hg
* Reported Sep 6 11:00 AM — Sep 21 11:00 AM, Rheine, Weather by CustomWeather, © 2014

Note: Actual official high and low records may vary slightly from our data, if they occured in-between our weather recording intervals... More about our weather records

Advertising

Rheine weather history for previous 24 hours

 ConditionsComfort  
Time TempWeatherWind HumidityBarometerVisibility
11:00 AM
Sep 21
60 °FLow clouds.5 mph93%30.00 "Hg9 mi
10:00 AM60 °FLight rain. Low clouds.5 mph97%29.98 "Hg6 mi
9:00 AM60 °FLight rain. Low clouds.3 mph97%29.96 "Hg2 mi
8:00 AM60 °FSprinkles. Low clouds.2 mph98%29.95 "Hg2 mi
7:00 AM61 °FLight rain. Low clouds.2 mph98%29.95 "Hg1 mi
6:00 AM61 °FFog.1 mph99%29.95 "Hg1 mi
5:00 AM60 °FFog.2 mph99%29.95 "Hg1 mi
4:00 AM60 °FLow clouds.2 mph99%29.96 "Hg2 mi
3:00 AM59 °FFog.2 mph100%29.96 "Hg2 mi
2:00 AM58 °FFog.1 mph99%29.96 "Hg1 mi
1:00 AM58 °FFog.2 mph99%29.96 "Hg1 mi
12:00 AM60 °FFog.1 mph99%29.96 "Hg1 mi
11:00 PM
Sep 20
61 °FThunderstorms. Overcast.1 mph98%29.94 "Hg9 mi
10:00 PM61 °FThunderstorms. Low clouds.2 mph96%29.95 "Hg6 mi
9:00 PM61 °FThunderstorms. Overcast.1 mph98%29.94 "Hg1 mi
8:00 PM61 °FOvercast.1 mph96%29.93 "Hg7 mi
3:00 PM72 °FOvercast.2 mph74%29.93 "Hg4 mi
2:00 PM71 °FOvercast.2 mph77%29.94 "Hg5 mi
1:00 PM70 °FFog.3 mph81%29.94 "Hg4 mi
12:00 PM69 °FFog.2 mph84%29.94 "Hg2 mi
Weather by CustomWeather, © 2014

See weather overviewHow to use our weather pages